Wetbulb
49.18 49.67 51.87 51.69 51.66 52.92 52.57 52.93 49.82 51.03 52.34 56.73 60.06 60.58 64.44 64.86 65.53 65.59 66.06 66.71 67.14 65.73 65.49 67.37 67.88 69.97 72.57 74.01 74.77 74.85 74.25 74.61 75.09 76.01 76.25 76.64 76.52 76.63 76.69 76.19 75.91 76.08 75.82 75.71
48.27 50.14 51.26 50.02 51.31 52.25 53.31 54.26 54.49 55.14 54.95 62.09 62.38 62.74 64.96 64.68 64.60 64.41 65.44 66.51 68.52 67.69 67.89 66.48 67.85 69.03 70.30 73.29 74.11 74.53 72.80 71.84 75.63 76.22 76.30 76.25 75.61 76.03 75.85 74.94 75.05 75.14 74.89 74.83
46.00 48.98 49.76 46.65 49.97 51.65 52.74 54.75 54.40 52.09 57.27 61.53 61.65 60.50 61.36 64.86 65.62 65.37 66.11 67.26 67.27 68.86 68.98 68.85 67.83 68.50 68.79 71.77 73.50 73.35 70.84 71.52 74.42 74.94 74.78 75.70 75.32 75.22 73.88 72.53 73.92 73.06 74.13 73.70
46.48 46.68 40.04 49.80 54.63 54.15 52.73 53.95 55.99 56.45 58.93 60.81 59.55 59.99 61.47 64.66 64.40 63.98 64.96 66.75 67.88 68.76 69.47 66.93 67.86 69.78 69.71 69.78 71.17 72.84 71.04 70.28 73.06 71.05 72.02 74.09 71.10 71.06 70.70 71.32 71.12 71.35 71.81 70.59
45.19 44.04 46.43 49.54 52.78 52.66 51.87 50.80 55.01 55.75 59.78 59.81 59.63 61.88 59.43 61.33 62.09 61.83 62.60 63.33 63.59 64.64 66.94 68.52 67.92 68.10 67.81 67.70 67.94 68.06 68.50 69.84 70.70 70.08 70.95 69.50 68.82 69.16 69.82 69.64 70.04 67.72 64.49 61.74
46.20 41.97 39.49 50.03 54.95 56.76 55.87 48.30 57.14 58.93 61.11 61.14 62.20 59.20 58.03 59.25 60.38 60.35 60.67 61.27 61.86 62.58 64.37 65.16 65.62 69.41 68.57 67.13 67.79 68.15 68.40 69.94 70.55 71.12 70.35 68.42 69.03 68.30 68.80 69.05 65.70 62.54 59.76 59.26
45.55 44.85 46.45 53.33 55.51 57.00 47.36 51.03 59.93 61.89 62.96 62.29 59.70 60.53 59.84 60.66 60.17 60.45 60.46 60.29 60.86 60.28 60.17 61.75 63.79 67.43 68.10 69.10 68.23 68.46 68.91 67.25 66.55 66.75 66.43 68.26 68.80 67.74 65.79 61.90 59.87 59.01 57.86 57.48
48.75 45.58 42.29 55.34 55.18 51.60 56.24 60.71 61.77 63.17 63.38 59.12 60.37 62.18 61.36 60.39 59.95 60.00 59.69 60.37 60.52 58.98 58.69 59.24 60.88 61.01 59.87 60.69 63.77 65.81 65.45 65.33 65.04 64.96 65.46 65.66 65.62 62.63 61.72 60.78 59.19 57.54 56.04 54.75
50.01 50.32 56.23 58.39 57.32 59.27 59.92 60.30 62.68 62.45 62.60 63.46 61.65 61.65 61.73 60.32 61.09 61.50 61.07 59.68 58.89 57.45 56.44 56.29 57.48 58.02 57.14 57.62 60.79 61.23 60.35 59.57 60.53 61.95 61.78 62.35 64.90 64.01 61.45 61.46 59.39 57.52 56.28 56.14
52.23 55.71 56.42 58.24 59.13 59.89 61.94 62.30 64.26 62.67 63.61 62.58 60.67 60.36 60.11 60.62 60.91 61.08 61.71 61.27 60.13 60.08 57.74 55.49 56.13 56.18 56.30 56.70 57.16 56.73 56.14 56.06 55.60 58.60 59.16 59.86 59.55 60.52 61.40 62.15 61.06 59.82 58.18 57.32
52.29 55.78 57.92 58.79 60.63 61.48 62.37 64.29 64.20 64.01 62.90 62.31 60.94 60.83 61.83 61.98 62.43 62.32 61.45 61.14 61.70 60.06 59.25 57.92 57.62 57.61 58.09 58.05 57.94 54.82 53.84 53.10 53.95 55.53 52.99 50.92 49.42 52.28 52.78 49.13 52.39 59.37 59.13 60.51
51.08 55.79 58.66 59.29 61.38 62.90 62.87 62.79 63.44 63.35 62.51 62.88 62.58 61.27 61.76 60.93 60.80 60.36 59.51 59.79 59.32 58.54 57.98 57.40 57.77 57.91 58.97 59.26 59.27 57.85 56.75 56.24 54.68 52.68 52.89 51.95 50.17 47.15 44.04 46.94 47.57 46.32 46.04 51.36
56.68 59.44 59.34 60.70 61.59 62.09 62.87 63.28 63.20 63.90 63.45 62.16 62.46 61.84 61.43 60.87 61.63 59.14 61.11 59.91 58.81 58.21 58.76 59.47 59.92 60.11 60.57 61.84 61.97 60.21 58.56 57.94 56.63 56.74 57.89 57.36 57.85 57.36 55.66 47.47 42.90 41.06 41.40 42.31
59.93 61.08 58.73 59.66 58.66 61.88 63.33 64.16 62.63 64.57 64.10 63.31 62.80 62.84 62.27 61.37 61.76 62.13 61.81 61.87 61.76 61.08 61.35 61.58 60.87 60.47 61.80 61.89 61.58 61.58 59.66 52.64 59.66 58.57 57.74 57.16 57.11 57.32 57.60 58.12 58.38 57.30 42.53 45.18
59.18 61.02 60.00 61.04 61.37 60.73 62.11 62.65 63.05 63.10 63.42 63.01 63.43 62.66 62.45 62.00 61.92 62.46 63.15 63.40 63.27 63.02 62.95 63.18 62.45 62.17 63.46 63.63 63.30 62.76 62.55 61.73 61.28 60.74 59.83 57.82 60.35 59.22 57.46 56.03 55.75 56.29 57.49 46.79
59.45 60.67 60.19 60.15 60.10 60.12 60.69 60.95 60.67 61.80 63.24 63.17 62.99 62.98 62.86 63.24 63.70 63.64 63.90 63.78 62.96 62.19 62.76 62.31 61.65 62.64 63.44 63.61 64.31 63.35 62.15 56.40 57.19 63.26 61.84 61.69 61.96 60.72 60.39 59.71 58.95 57.60 56.77 56.24
58.37 57.88 58.90 59.07 59.62 59.62 60.11 60.69 61.52 63.17 63.49 63.02 63.25 63.75 61.98 62.64 63.16 63.20 63.48 63.75 63.17 61.79 60.70 59.89 58.76 59.63 60.01 59.99 60.36 61.64 61.50 61.57 53.80 59.20 59.82 59.66 59.25 58.74 58.77 58.77 58.16 58.20 58.46 58.40
61.14 61.14 61.46 61.12 60.17 59.96 60.15 60.76 61.59 62.64 63.30 63.92 64.30 63.48 62.77 62.18 60.88 60.37 59.94 59.73 59.07 58.51 58.51 58.21 57.77 58.10 57.85 57.73 57.33 56.70 56.19 55.98 56.28 56.36 56.93 57.09 57.47 57.67 57.68 57.76 57.31 56.96 56.89 57.56
61.40 60.82 61.18 61.19 61.23 61.39 61.08 61.01 61.39 62.74 64.41 64.19 63.60 62.82 62.62 61.59 60.39 59.04 58.94 58.37 57.62 56.52 55.76 55.93 51.79 55.68 56.18 54.92 56.01 57.44 56.42 56.41 56.52 56.88 56.38 54.38 56.05 57.00 56.70 56.89 56.37 56.34 56.45 56.09
60.73 61.82 62.00 61.57 61.77 61.70 61.50 62.15 62.39 62.73 63.44 63.30 62.97 61.61 60.39 59.72 59.01 58.48 58.35 56.78 55.91 54.42 55.01 54.65 55.44 55.37 55.80 55.88 54.26 56.19 55.76 55.98 55.93 55.97 55.87 55.49 56.19 56.06 56.52 52.14 55.84 56.17 56.27 56.04
60.90 61.23 61.48 61.84 61.68 62.40 62.59 62.85 62.66 61.89 62.36 62.42 61.15 60.25 59.24 58.79 58.86 58.15 55.32 52.72 53.97 54.48 55.38 53.58 56.75 55.74 55.97 56.09 55.63 56.66 57.24 56.21 56.54 55.89 55.69 55.47 55.70 55.29 55.24 55.44 55.33 55.30 55.18 55.40
61.58 60.98 61.04 61.66 61.83 61.95 62.89 62.86 62.44 62.05 61.47 61.20 60.81 59.70 58.51 57.68 57.34 56.53 56.33 54.75 54.17 49.68 54.32 55.10 54.42 51.21 53.05 53.06 55.45 55.15 55.78 56.35 55.81 55.84 55.40 55.34 54.79 53.92 53.48 53.58 53.69 54.50 54.82 55.16
61.47 61.45 61.73 61.51 61.56 62.09 62.75 62.33 62.12 61.37 60.20 60.54 59.81 58.94 58.13 57.07 56.37 53.80 52.14 55.13 53.96 51.56 54.54 53.48 50.30 50.00 50.45 55.71 55.58 55.25 54.92 54.95 54.37 54.09 53.65 53.99 53.57 52.95 52.67 52.40 51.69 52.14 52.16 52.51
61.86 61.92 62.13 62.74 62.64 61.67 60.43 61.47 61.87 61.53 60.92 60.76 58.95 59.54 58.36 56.61 56.06 56.09 55.06 50.99 48.28 50.37 53.54 52.30 51.08 49.03 50.02 54.57 54.63 54.46 54.48 54.68 54.73 54.50 54.35 46.83 53.07 52.78 52.60 52.56 51.60 51.08 52.13 51.91
62.45 62.34 62.17 61.80 61.03 60.56 61.47 61.29 60.95 60.16 59.57 59.20 58.74 58.74 59.35 58.74 56.75 55.46 54.75 54.05 48.52 51.67 53.28 49.34 49.92 49.47 54.78 54.70 54.73 55.39 55.68 55.53 54.33 55.45 54.71 53.96 53.35 52.75 52.43 52.77 52.65 52.39 52.20 53.00
61.97 61.21 61.48 62.07 61.50 61.31 60.88 60.20 59.09 59.22 58.73 57.81 58.07 58.46 58.42 57.87 56.28 54.82 54.96 52.82 53.60 51.57 53.86 53.88 53.65 53.77 55.12 54.92 55.48 55.95 56.09 55.50 54.66 55.55 53.15 55.10 54.56 54.15 53.64 53.21 52.62 52.99 53.25 53.43
61.93 56.54 60.91 60.70 61.33 61.20 60.70 59.71 59.39 58.47 57.94 58.45 57.69 58.20 57.84 56.83 55.49 54.16 51.83 54.14 54.42 53.66 54.02 54.35 54.26 52.71 54.70 54.75 54.68 54.67 54.76 55.01 50.89 54.48 55.88 55.60 55.66 55.21 54.93 54.55 54.32 53.85 53.55 53.81
MSLP
1006.31 1006.14 1006.40 1006.33 1005.85 1005.75 1005.07 1004.95 1004.50 1003.38 1004.37 1004.69 1006.82 1007.65 1007.39 1007.04 1007.22 1007.64 1008.05 1008.55 1009.68 1010.28 1010.79 1011.48 1011.82 1012.10 1012.31 1012.62 1013.05 1013.46 1013.86 1014.32 1014.56 1014.90 1015.30 1015.92 1016.29 1016.66 1016.96 1017.19 1017.34 1017.61 1017.75 1017.86
1006.78 1006.42 1006.56 1006.12 1006.14 1006.72 1005.78 1005.42 1005.14 1004.98 1004.81 1006.33 1007.55 1008.25 1007.90 1007.13 1007.60 1007.89 1008.19 1008.42 1008.94 1009.98 1010.92 1011.66 1011.84 1012.24 1012.73 1012.88 1013.39 1014.00 1014.05 1014.48 1014.41 1015.05 1015.38 1015.68 1016.03 1016.53 1016.89 1017.16 1017.34 1017.50 1017.60 1017.77
1006.50 1006.42 1006.34 1005.72 1005.90 1005.88 1005.78 1005.56 1005.53 1005.40 1006.17 1006.98 1007.91 1008.98 1009.15 1008.05 1008.05 1008.13 1008.44 1008.86 1009.28 1010.01 1010.88 1011.57 1012.24 1012.69 1013.24 1013.44 1013.68 1014.11 1014.36 1014.64 1014.94 1015.10 1015.20 1015.53 1015.95 1016.49 1016.92 1017.40 1017.58 1017.70 1017.72 1018.11
1007.33 1007.81 1006.82 1006.20 1006.14 1006.31 1005.82 1005.54 1005.77 1006.18 1006.77 1008.05 1009.63 1010.24 1010.15 1009.82 1009.77 1010.24 1010.42 1010.38 1010.34 1010.35 1011.03 1011.92 1012.52 1012.92 1013.72 1014.23 1014.04 1013.88 1014.42 1014.76 1015.05 1015.66 1015.38 1015.76 1016.42 1016.73 1017.13 1017.49 1017.86 1018.11 1018.19 1018.32
1007.91 1007.93 1007.42 1006.88 1006.69 1006.81 1006.39 1005.74 1005.93 1006.78 1007.47 1009.10 1010.04 1010.65 1011.36 1011.54 1011.83 1011.87 1011.90 1012.03 1011.79 1011.62 1011.96 1012.26 1012.49 1012.85 1013.35 1014.13 1014.13 1014.62 1014.83 1015.12 1015.29 1015.80 1015.71 1015.98 1016.52 1016.66 1016.85 1017.20 1017.68 1018.34 1018.83 1018.98
1007.88 1008.19 1007.36 1006.96 1006.88 1007.06 1007.13 1006.31 1005.55 1006.83 1007.88 1009.23 1009.62 1009.57 1011.61 1012.38 1012.74 1013.20 1012.65 1012.96 1013.05 1013.08 1012.89 1012.82 1012.97 1013.07 1013.33 1013.81 1014.20 1014.78 1014.60 1014.82 1015.36 1015.54 1015.60 1015.93 1016.14 1015.72 1016.87 1016.82 1017.54 1018.45 1019.17 1019.50
1007.55 1007.80 1007.44 1007.18 1007.69 1007.84 1007.38 1007.37 1007.02 1007.25 1007.97 1009.20 1010.14 1011.05 1012.37 1012.84 1013.50 1013.85 1013.71 1013.76 1013.78 1013.80 1013.68 1013.83 1013.85 1013.68 1013.64 1013.94 1014.38 1014.91 1015.04 1015.49 1016.00 1016.10 1016.15 1015.97 1016.13 1016.69 1016.97 1017.69 1018.15 1018.76 1019.30 1019.76
1007.28 1007.62 1007.59 1007.66 1008.01 1007.77 1008.00 1007.65 1007.64 1007.72 1008.59 1010.06 1010.81 1011.75 1012.57 1013.26 1013.98 1014.24 1014.15 1014.24 1014.33 1014.35 1014.34 1014.80 1014.77 1014.73 1014.90 1014.98 1015.33 1015.37 1015.71 1016.07 1016.44 1016.38 1016.73 1016.74 1016.75 1017.30 1017.82 1018.06 1018.62 1019.34 1019.25 1020.04
1007.58 1007.25 1007.98 1008.14 1007.91 1008.04 1008.30 1008.20 1008.30 1008.90 1009.63 1010.22 1010.85 1011.54 1012.56 1013.38 1013.97 1014.34 1014.64 1014.77 1014.99 1014.96 1015.19 1015.65 1015.72 1015.61 1015.48 1016.14 1015.97 1016.10 1016.28 1016.72 1016.80 1017.10 1017.36 1017.45 1017.46 1017.67 1017.73 1018.56 1018.95 1019.76 1020.31 1020.35
1007.48 1007.22 1007.50 1007.68 1007.88 1008.20 1008.45 1008.28 1008.78 1009.59 1009.70 1010.26 1010.69 1011.41 1012.40 1013.42 1014.01 1014.39 1014.74 1014.96 1015.14 1015.08 1015.68 1016.36 1016.35 1016.22 1016.54 1016.84 1016.76 1016.90 1017.10 1017.43 1017.93 1017.97 1018.00 1018.33 1018.38 1018.54 1018.80 1018.87 1019.56 1020.24 1020.53 1020.72
1006.73 1006.96 1007.32 1007.51 1007.86 1008.06 1008.52 1008.83 1009.00 1009.31 1009.70 1010.33 1011.12 1011.83 1012.43 1013.28 1013.92 1014.32 1014.77 1014.99 1015.33 1015.58 1016.33 1016.87 1017.22 1017.07 1017.04 1017.08 1017.09 1017.31 1017.56 1017.91 1018.33 1018.56 1018.81 1019.04 1019.42 1019.69 1019.70 1020.42 1020.30 1020.52 1020.52 1020.75
1005.66 1006.46 1006.86 1007.15 1007.76 1008.17 1008.53 1008.95 1009.30 1009.63 1010.13 1010.98 1011.70 1012.14 1012.74 1013.49 1014.07 1014.33 1014.74 1015.33 1015.78 1016.20 1016.51 1016.72 1017.17 1017.10 1017.05 1017.19 1017.03 1017.20 1017.34 1017.63 1018.31 1018.57 1018.94 1019.15 1019.11 1019.64 1020.19 1020.60 1020.74 1020.89 1021.00 1020.88
1006.06 1006.52 1007.02 1007.35 1007.94 1008.15 1008.58 1009.14 1009.53 1009.98 1010.68 1011.18 1011.89 1012.47 1013.12 1013.80 1014.34 1014.77 1015.04 1015.51 1015.92 1016.29 1016.48 1016.70 1016.98 1017.30 1017.72 1017.56 1017.40 1017.44 1017.64 1017.99 1018.12 1017.81 1017.84 1018.26 1018.37 1018.70 1019.16 1020.39 1020.69 1020.71 1020.85 1020.96
1006.60 1006.76 1007.08 1007.32 1007.70 1008.33 1008.71 1009.32 1009.91 1010.37 1011.00 1011.57 1012.23 1012.82 1013.34 1014.04 1014.62 1014.87 1015.30 1015.77 1016.08 1016.32 1016.88 1017.18 1017.33 1017.58 1017.70 1017.93 1017.91 1017.78 1017.99 1018.22 1017.56 1017.59 1018.20 1018.48 1018.66 1018.80 1018.71 1019.01 1019.16 1019.64 1020.56 1020.70
1006.49 1006.47 1006.43 1007.15 1007.76 1008.44 1008.98 1009.46 1009.67 1010.15 1010.78 1011.68 1012.37 1012.88 1013.69 1014.22 1014.64 1015.11 1015.60 1016.05 1016.32 1016.52 1016.73 1017.25 1017.57 1017.77 1017.95 1018.08 1018.02 1017.99 1017.72 1017.90 1018.10 1018.27 1018.23 1018.47 1018.33 1018.54 1018.82 1018.96 1019.24 1019.27 1019.24 1019.97
1006.22 1006.43 1006.64 1007.14 1007.78 1008.41 1008.75 1009.15 1009.56 1010.10 1010.94 1011.94 1012.55 1013.18 1013.86 1014.29 1014.78 1015.28 1015.74 1016.06 1016.36 1016.64 1017.46 1018.05 1018.34 1018.39 1018.36 1018.31 1018.27 1018.04 1018.20 1018.82 1018.64 1017.92 1018.10 1018.14 1018.09 1018.18 1018.28 1018.29 1018.56 1018.77 1018.62 1018.64
1005.83 1006.31 1006.62 1006.83 1007.50 1008.17 1008.49 1008.86 1009.45 1010.17 1010.96 1011.68 1012.52 1013.34 1014.29 1014.59 1015.10 1015.59 1016.07 1016.58 1017.30 1017.64 1018.06 1018.53 1018.86 1018.98 1018.90 1018.71 1018.43 1018.23 1017.94 1018.06 1018.86 1017.89 1017.80 1017.84 1018.00 1018.03 1018.09 1017.98 1018.14 1018.01 1017.88 1018.10
1005.27 1005.50 1005.91 1006.39 1007.05 1007.89 1008.39 1008.88 1009.61 1010.44 1011.16 1011.88 1012.81 1013.56 1014.14 1014.83 1015.46 1016.26 1016.88 1017.62 1018.10 1018.52 1018.94 1019.40 1019.48 1019.46 1019.47 1019.30 1019.09 1018.78 1018.38 1018.20 1018.20 1018.26 1018.10 1017.90 1018.07 1017.97 1017.93 1017.92 1017.83 1017.68 1017.54 1017.60
1005.28 1005.18 1005.72 1006.22 1006.88 1007.67 1008.30 1008.94 1009.69 1010.52 1011.52 1012.30 1012.97 1013.66 1014.29 1015.15 1015.94 1016.64 1017.25 1017.68 1018.02 1018.45 1019.07 1019.37 1019.90 1019.44 1019.42 1019.78 1019.24 1018.34 1018.22 1018.25 1018.12 1018.06 1018.04 1018.41 1018.44 1018.11 1017.92 1017.82 1017.59 1017.46 1017.48 1017.47
1005.19 1005.32 1005.76 1006.20 1006.83 1007.50 1008.25 1009.02 1009.82 1010.87 1011.74 1012.40 1013.09 1013.91 1014.69 1015.53 1016.32 1016.88 1017.34 1017.67 1018.04 1018.49 1019.09 1019.22 1019.12 1019.12 1019.30 1019.42 1019.27 1018.42 1018.49 1018.34 1018.34 1018.27 1018.39 1018.48 1018.23 1018.31 1018.12 1017.90 1017.91 1017.61 1017.40 1017.34
1004.91 1005.35 1005.78 1006.36 1006.95 1007.54 1008.22 1009.08 1009.97 1010.93 1011.84 1012.54 1013.24 1014.00 1014.84 1015.78 1016.46 1017.05 1017.60 1017.81 1018.83 1019.35 1019.27 1019.74 1019.24 1019.25 1019.50 1019.50 1019.21 1019.04 1018.94 1018.88 1018.81 1018.79 1018.80 1018.76 1018.76 1018.61 1018.48 1018.31 1018.08 1017.83 1017.60 1017.48
1004.79 1005.27 1005.82 1006.42 1007.02 1007.60 1008.20 1009.14 1010.11 1011.04 1011.89 1012.80 1013.57 1014.37 1015.10 1015.84 1016.64 1017.11 1017.22 1017.48 1018.59 1019.46 1019.08 1019.17 1019.59 1020.24 1019.98 1019.92 1019.20 1019.17 1019.28 1019.23 1019.05 1018.99 1018.96 1018.99 1019.03 1018.98 1018.90 1018.79 1018.50 1018.17 1017.95 1017.73
1004.57 1005.10 1005.61 1006.26 1006.84 1007.47 1008.26 1009.04 1010.03 1011.08 1011.86 1012.63 1013.39 1014.28 1014.74 1015.29 1015.89 1016.46 1017.10 1017.89 1018.40 1018.96 1018.75 1019.40 1020.32 1020.41 1020.17 1019.62 1019.66 1019.47 1019.51 1019.48 1019.37 1019.34 1019.38 1019.30 1019.18 1019.13 1019.20 1019.36 1019.56 1019.38 1019.02 1018.61
1004.29 1004.84 1005.38 1006.07 1006.76 1007.58 1008.29 1008.98 1009.76 1010.96 1011.85 1012.66 1013.56 1014.04 1014.33 1014.76 1015.44 1015.73 1016.54 1017.84 1018.44 1018.82 1018.71 1019.77 1020.21 1020.29 1020.17 1019.82 1019.87 1019.85 1019.76 1019.79 1019.80 1019.74 1019.68 1019.82 1019.43 1019.42 1019.48 1019.60 1019.82 1019.82 1019.38 1019.07
1004.13 1004.70 1005.33 1005.89 1006.56 1007.23 1007.98 1008.82 1009.74 1010.86 1011.86 1012.54 1013.42 1013.86 1014.05 1014.38 1014.68 1015.51 1016.43 1017.41 1018.41 1018.52 1018.76 1019.84 1020.20 1020.24 1019.66 1019.68 1019.78 1019.82 1019.89 1019.92 1020.02 1019.94 1019.77 1019.80 1019.75 1019.66 1019.77 1019.93 1019.86 1019.72 1019.51 1019.00
1004.21 1004.56 1005.14 1005.80 1006.01 1006.64 1007.51 1008.60 1009.06 1010.04 1011.01 1011.71 1012.51 1013.14 1013.62 1014.23 1014.69 1015.60 1016.30 1017.00 1017.86 1018.25 1018.23 1019.16 1019.51 1019.83 1019.56 1019.64 1019.74 1019.77 1019.66 1019.58 1019.75 1019.85 1020.04 1019.76 1019.67 1019.58 1019.62 1019.79 1019.75 1019.50 1019.12 1018.67
1004.39 1004.60 1005.15 1005.76 1006.00 1006.61 1007.29 1008.01 1008.56 1009.39 1010.20 1010.84 1011.69 1012.64 1013.22 1013.81 1014.31 1015.10 1015.84 1016.42 1016.82 1017.50 1017.60 1018.00 1018.50 1019.04 1018.85 1018.90 1019.05 1019.08 1019.14 1019.18 1019.46 1019.30 1019.42 1019.53 1019.51 1019.36 1019.29 1019.27 1019.26 1019.32 1019.14 1018.70
Wind_Speed
11 10 9 11 5 4 7 6 8 13 10 11 7 6 12 5 8 9 13 17 16 11 9 10 7 6 9 10 10 9 12 13 13 13 12 11 11 10 10 8 7 6 5 5
12 11 12 11 10 13 1 1 6 7 11 8 7 6 8 3 4 9 10 11 16 14 15 10 11 8 5 9 8 10 10 8 10 11 12 12 11 11 10 8 8 7 7 5
13 7 14 16 16 13 9 6 4 9 12 9 6 6 7 5 1 1 2 4 5 10 13 10 8 8 7 5 7 8 5 3 9 9 12 12 11 11 8 5 5 6 7 6
11 3 13 12 2 11 14 11 8 11 6 5 3 2 8 11 7 7 7 5 4 5 9 9 9 11 10 6 4 5 5 6 6 5 3 9 6 5 3 3 7 5 6 2
6 8 12 14 9 9 10 15 9 11 2 3 4 8 9 11 11 7 6 6 7 7 5 7 8 6 6 3 5 3 4 7 6 6 8 6 6 6 5 5 3 3 2 4
11 6 8 4 6 0 4 10 10 14 9 11 8 7 6 8 10 6 8 7 5 6 6 5 4 5 11 9 7 8 3 5 4 5 6 6 7 6 4 4 6 6 6 5
10 7 7 4 5 4 9 5 4 6 9 11 5 9 8 8 9 9 9 8 7 8 8 6 4 2 5 10 9 6 5 6 5 4 2 2 4 2 5 6 7 7 7 5
5 3 8 5 6 7 6 2 1 0 7 16 14 13 12 9 7 7 8 8 10 9 10 9 7 7 8 8 6 7 7 7 5 6 3 4 8 7 7 8 8 2 8 5
4 2 3 1 9 4 6 4 2 8 9 14 16 14 12 9 7 7 8 8 8 10 11 10 9 7 10 6 6 8 9 8 7 7 7 8 6 7 7 5 5 5 3 4
4 5 3 2 4 3 2 4 13 13 16 14 14 13 13 8 6 7 7 9 10 11 12 10 9 10 9 7 8 9 10 9 7 5 8 8 6 6 5 5 5 3 3 3
5 2 1 3 3 5 8 12 16 16 13 15 14 12 12 10 9 9 9 9 9 10 11 11 9 10 9 8 9 10 9 7 7 7 6 7 6 5 6 4 3 3 1 0
6 4 2 7 7 7 10 12 13 15 16 15 15 13 13 11 10 10 11 10 10 10 11 11 10 10 9 8 9 9 9 9 7 5 5 4 5 5 8 4 1 1 1 2
2 5 4 9 9 6 9 12 12 15 17 18 16 14 14 12 11 11 11 11 11 11 10 10 10 10 9 8 8 9 9 8 5 5 6 6 5 5 6 4 3 4 4 4
3 9 8 11 9 8 10 11 12 16 16 15 14 14 13 14 12 12 11 11 11 10 9 9 10 9 7 7 7 8 7 5 5 6 5 4 3 3 3 2 1 5 4 0
9 12 9 10 11 10 10 10 11 13 14 16 15 14 14 13 12 12 11 11 10 10 9 9 9 8 6 6 5 5 4 5 4 3 4 3 2 2 1 1 2 3 2 6
11 11 9 14 13 12 11 11 10 11 15 15 14 14 13 12 11 11 9 8 7 7 8 8 7 7 5 5 1 3 6 4 4 1 2 1 1 3 2 2 3 3 3 4
15 13 11 13 15 14 11 9 9 12 12 14 15 15 12 12 11 11 9 9 9 9 8 7 7 6 5 5 4 2 2 2 3 5 3 3 4 4 5 4 4 5 5 2
16 16 16 16 15 14 12 10 11 11 12 14 14 15 14 13 13 12 12 11 10 9 8 6 4 4 3 4 5 3 3 4 4 4 3 3 4 5 5 5 5 6 6 2
15 13 14 14 14 15 14 12 12 12 14 15 15 14 12 13 13 13 11 10 8 8 6 6 3 2 4 6 7 1 3 2 2 2 3 2 6 4 5 5 5 6 6 7
14 12 14 16 15 15 14 13 15 14 13 14 14 14 14 13 12 11 9 6 4 6 4 5 3 5 4 5 6 4 4 5 4 4 5 6 5 6 6 3 5 7 7 8
15 15 15 14 14 13 15 15 15 15 15 15 16 15 14 13 12 11 9 7 7 6 6 3 1 4 3 1 4 2 2 3 3 3 4 4 4 5 6 7 8 8 8 8
13 14 15 15 14 13 14 15 15 15 16 15 14 14 15 14 12 10 4 7 8 9 7 5 6 6 5 7 3 4 3 3 3 3 4 4 5 5 7 8 9 8 9 9
14 14 15 16 15 15 14 15 16 17 17 17 17 16 15 12 11 10 8 8 9 5 6 8 9 5 4 4 5 6 6 6 5 5 5 4 5 6 7 9 10 9 9 9
14 14 15 14 13 14 15 15 16 16 15 15 15 16 13 10 8 6 9 9 13 8 8 9 7 3 8 5 4 5 4 4 4 4 4 3 6 7 7 7 6 6 6 8
13 13 14 15 15 12 14 15 14 15 16 14 15 14 12 7 7 8 9 10 11 8 8 10 8 5 3 3 3 2 2 3 4 3 3 4 5 6 6 6 5 6 6 5
13 11 11 14 11 11 11 13 12 13 13 13 12 10 10 8 7 9 10 11 11 8 8 9 8 7 4 4 3 3 2 2 4 3 3 3 3 4 4 5 5 6 6 7
9 7 10 9 8 10 11 12 12 13 13 13 13 11 11 10 9 10 11 12 11 11 8 8 9 8 6 6 7 5 4 4 2 4 2 3 3 3 3 4 4 4 6 6
Wind_Direction
258 272 267 199 333 310 283 301 285 283 320 350 354 330 306 298 212 202 206 188 194 193 188 177 164 169 214 212 210 206 201 211 218 218 214 214 214 216 210 206 209 215 212 225
264 247 241 241 183 263 239 270 255 289 278 54 326 336 273 222 197 228 217 226 200 192 177 188 184 178 194 215 200 212 194 223 242 233 214 207 211 208 208 211 216 219 223 225
260 265 244 234 249 231 251 251 323 335 352 337 307 341 359 358 129 249 216 181 191 184 189 169 162 153 147 178 181 201 171 221 256 243 222 214 206 204 209 210 226 229 222 226
277 161 268 268 19 281 249 243 275 293 327 317 46 44 28 10 53 67 62 68 112 162 155 135 132 144 152 176 159 173 164 129 195 242 239 215 167 177 190 180 222 228 216 152
256 265 257 261 215 216 229 236 249 285 250 170 169 156 59 38 32 38 44 47 50 51 81 145 150 144 140 154 150 199 218 212 226 213 197 185 211 206 196 205 192 122 90 105
268 275 278 54 55 118 254 248 220 199 207 186 205 233 94 31 37 26 46 44 60 78 81 77 64 170 168 180 184 214 198 244 241 226 216 203 200 183 184 179 117 118 100 69
251 254 273 74 124 166 217 58 332 218 168 177 70 48 82 58 52 36 42 41 53 57 62 57 46 194 155 175 178 145 114 116 101 85 61 207 146 98 100 106 114 124 116 85
277 256 259 112 159 240 21 29 320 46 139 102 114 105 93 83 69 60 56 56 63 60 53 40 44 80 71 71 75 95 95 90 101 101 89 97 96 87 94 116 119 87 100 88
274 1 48 279 275 350 329 329 127 110 126 133 115 105 104 88 77 77 73 71 68 72 64 42 40 55 79 37 69 88 84 70 50 57 60 48 65 128 118 110 104 126 130 109
270 120 293 279 236 241 186 97 104 139 144 143 123 120 103 115 133 103 85 74 82 81 79 67 57 60 60 61 66 71 72 69 62 58 82 74 76 44 48 103 101 106 129 144
244 217 250 138 138 132 126 128 131 130 133 127 119 121 130 131 126 110 98 93 95 89 88 86 85 87 92 102 110 97 93 88 86 96 86 83 69 63 76 39 40 81 81 287
46 103 322 115 112 125 134 139 138 126 125 122 126 124 121 113 109 104 99 98 98 98 98 94 87 84 82 89 97 93 101 107 113 115 97 104 97 79 54 75 70 56 356 338
86 143 100 125 109 111 124 145 138 136 137 137 133 129 124 120 109 108 109 109 107 104 102 99 93 88 92 92 95 99 102 108 96 73 92 108 111 127 133 156 185 150 129 97
157 144 154 165 141 114 121 134 145 141 141 138 141 138 133 123 140 120 113 114 113 108 110 110 104 95 88 85 78 81 79 6 93 104 91 77 63 49 39 36 53 146 192 159
184 206 171 166 137 130 128 148 157 154 150 155 154 144 140 143 134 125 125 126 124 114 108 108 100 89 82 79 73 76 75 83 81 79 59 76 121 137 115 48 330 312 208 190
184 188 185 169 163 156 156 153 159 162 159 158 156 150 156 140 131 130 127 125 128 111 100 94 87 77 76 73 147 138 124 61 323 350 135 249 308 316 308 268 230 253 270 260
175 181 184 186 173 173 172 154 143 154 158 162 158 141 143 140 128 123 116 104 103 103 97 94 89 80 71 50 5 28 1 90 26 263 282 315 315 299 302 300 289 300 305 5
197 188 186 185 183 182 178 158 145 148 151 145 147 149 143 144 130 128 123 124 122 117 113 103 85 82 41 11 338 318 310 327 321 301 306 285 329 322 293 286 290 296 298 316
215 204 186 183 182 182 177 167 156 143 139 147 149 149 142 135 137 137 143 144 140 146 119 108 161 216 87 56 316 18 26 3 22 358 354 17 245 270 299 301 308 316 309 304
208 204 187 177 176 180 176 169 159 150 155 153 147 143 143 142 141 139 138 130 69 84 126 85 71 58 38 62 339 17 28 16 21 19 35 321 352 342 313 299 296 297 303 302
197 191 182 176 177 176 174 167 161 162 162 160 159 155 148 145 147 142 146 151 134 149 103 143 316 130 121 352 250 52 54 54 40 39 16 14 358 343 347 336 324 315 312 310
186 185 182 177 175 173 173 170 170 160 162 162 157 152 151 151 154 173 170 133 141 190 167 146 110 40 85 263 62 96 75 76 69 54 53 38 24 9 357 340 323 316 313 312
185 186 180 176 176 176 170 171 168 167 166 167 164 164 166 160 166 162 155 148 142 179 137 114 116 136 240 97 89 85 88 79 73 69 53 23 18 5 1 356 342 333 325 325
183 184 181 176 166 162 170 174 170 170 171 164 166 169 164 162 161 170 118 111 114 173 124 129 132 160 279 109 98 77 74 79 70 48 52 357 19 10 10 7 359 330 326 323
177 177 171 169 169 177 171 166 162 162 165 165 163 172 170 171 169 150 152 150 136 183 144 136 156 202 210 120 112 103 110 85 46 20 19 22 12 10 16 357 347 328 329 334
167 168 168 175 179 165 163 166 169 167 171 167 167 174 177 169 160 158 167 156 165 203 169 158 189 201 194 192 195 218 255 143 196 187 304 341 354 348 7 359 340 332 327 323
173 159 154 171 176 165 167 177 167 169 178 169 169 174 180 177 166 177 175 171 181 187 197 185 186 199 217 209 208 218 220 220 213 302 290 284 287 301 328 332 344 338 327 325